Location: Hermaringen
(48.5952°N, 10.2585°E)
Time: 14:37:46
(UTC+00:00)

Courier 1B Rocket - Pass Details

Date: 20 February 2026
Orbit: 920 x 1201 km, 28.2° (Epoch: 13 March)

Event Time Altitude Azimuth Distance (km) Brightness Sun altitude
Rises 19:35:00 0° 230° (SW) 3,550 8.4 -28.0°
Reaches altitude 10° 19:39:58 10° 196° (SSW) 2,635 7.2 -28.8°
Enters shadow 19:40:31 11° 191° (S) 2,600 7.2 -28.9°
